Simultaneous Nadir Overpasses (SNOs) Predictions

Prediction of SNOs between GOES-17 and NOAA-19 Satellite Orbit:

Table of predicted SNOs for the next 14.0 days since TLE Epoch: 4/29/2023
Index Date Time (GOES-17) GOES-17 Lat,Lon NOAA-19 Lat,Lon Distance(km) Time Diff (sec)
1 04/29/2023 15:12:24 0.01,-104.75 -0.95,-100.47 488.43 80
2 05/01/2023 03:44:41 -0.01,-104.71 -0.82,-108.21 399.25 80
3 05/02/2023 03:32:41 -0.01,-104.71 -0.14,-105.29 65.24 80
4 05/03/2023 03:18:00 -0.01,-104.72 0.55,-102.36 268.81 80
5 05/05/2023 15:38:06 0.02,-104.75 0.54,-107.14 271.44 80
6 05/06/2023 15:28:45 0.01,-104.75 -0.13,-104.21 62.13 80
7 05/07/2023 15:16:45 -0.00,-104.75 -0.81,-101.29 395.26 80
8 05/09/2023 03:48:59 0.02,-104.71 -1.00,-109.01 492.31 80
9 05/10/2023 03:36:59 0.03,-104.70 -0.30,-106.09 159.16 80
10 05/11/2023 03:22:18 0.03,-104.69 0.40,-103.17 174.06 80
